Погода в Писаревке

Россия / Воронежская область     49°53′03″N   40°10′52″E
В апреле 2022 года жителям России запретили посещать сайт meteo.paraplan.net по решению Генеральной прокуратуры. Аудитория сайта уменьшилась в 10 раз. Владельцы сайта не видят смысла в поддержке погодного сервера в таких условиях. Сайт будет закрыт в октябре.
темп.,
°C
ветер,
м/с
пор.,
м/с
влажн.,
%
обл.,
%
осадки,
мм/ч
давл.,
гПа
погр.,
м
4 октября, вт
вт400:00+11ю397195 0.0 1013201
03:00+11ююв3867100 0.0 1013212
06:00+11ююв4978100 0.0 1014244
09:00+14ю61066100 0.0 1014564
12:00+14ю61164100 0.0 1015922
15:00+14ю5116698 0.0 1015671
18:00+14ю4106777 0.1 1016437
21:00+13ю41070100 0.1 1017345
5 октября, ср
ср500:00+11юз36828 0.0 1017132
03:00+9зюз37821 0.0 1019177
06:00+7юз37830 0.0 1020154
09:00+11юз6106234 0.0 1020668
12:00+14зюз68524 0.0 10201322
15:00+14зюз695662 0.0 10211179
18:00+12з376797 0.1 1022183
21:00+9з410765 0.1 1023362
6 октября, чт
чт600:00+8з5107640 0.0 1023340
03:00+8зюз497368 0.0 1023272
06:00+9з5117099 0.0 1024448
09:00+10зюз51073100 0.0 1024521
12:00+11зюз587490 0.0 1024502
15:00+15з6860100 0.1 10231289
18:00+12з257231 0.1 1024135
21:00+10юз228135 0.1 102421
7 октября, пт
пт700:00+10юз348363 0.0 102561
03:00+11зюз377675 0.0 1024175
06:00+9зюз37855 0.0 1024135
09:00+13з47675 0.0 1024331
12:00+17з46525 0.0 1024934
15:00+18сз455041 0.0 10231155
18:00+15ссз22685 0.0 102422
21:00+13с238174 0.0 102644
8 октября, сб
сб800:00+15св347195 0.0 1026119
03:00+11св35895 0.0 102693
06:00+10всв35935 0.0 1027101
09:00+13в467526 0.0 1027358
12:00+17вюв455995 0.0 1026979
15:00+18вюв4553100 0.0 10241226
18:00+15в3565100 0.0 102391
21:00+13вюв3671100 0.0 1023118